QFA930 PABE-PAFA

Flight info

Callsign QFA930
Flight time 1h 5m
Altitude 35000
Route CABOT MCG ENN
Aircraft B738/M-L/LB1

Departure

Time 2026-05-04 10:23
Airport Bethel Airport (PABE)

Arrival

Time 2026-05-04 11:28
Airport Fairbanks International Airport (PAFA)
Time Latitude Longitude Altitude Speed Heading
2026-05-04 09:07 60.78310 -161.83871 138 ft 0 kts 301°
2026-05-04 10:16 60.78281 -161.83809 132 ft 0 kts 329°
2026-05-04 10:16 60.78282 -161.83810 132 ft 1 kts 329°
2026-05-04 10:16 60.78283 -161.83811 132 ft 0 kts 329°
2026-05-04 10:19 60.77632 -161.84197 132 ft 25 kts 204°
2026-05-04 10:19 60.77473 -161.84341 132 ft 25 kts 204°
2026-05-04 10:19 60.77313 -161.84481 132 ft 25 kts 203°
2026-05-04 10:19 60.77231 -161.84502 132 ft 1 kts 133°
2026-05-04 10:20 60.77230 -161.84500 132 ft 2 kts 133°
2026-05-04 10:20 60.77198 -161.84398 132 ft 8 kts 116°
2026-05-04 10:20 60.77203 -161.84336 132 ft 2 kts 40°
2026-05-04 10:20 60.77209 -161.84329 132 ft 2 kts 31°
2026-05-04 10:21 60.77232 -161.84300 132 ft 5 kts 31°
2026-05-04 10:21 60.77243 -161.84287 132 ft 0 kts 26°
2026-05-04 10:22 60.77254 -161.84276 132 ft 4 kts 25°
2026-05-04 10:22 60.77384 -161.84161 132 ft 50 kts 21°
2026-05-04 10:22 60.77920 -161.83692 132 ft 115 kts 23°
2026-05-04 10:23 60.78802 -161.82862 265 ft 154 kts 27°
2026-05-04 10:23 60.79722 -161.81747 980 ft 157 kts 27°
2026-05-04 10:25 60.84658 -161.67563 5550 ft 227 kts 56°
2026-05-04 10:25 60.85627 -161.64919 6279 ft 236 kts 51°
2026-05-04 10:25 60.86702 -161.62325 7105 ft 242 kts 50°
2026-05-04 10:25 60.87802 -161.59667 7934 ft 247 kts 50°
2026-05-04 10:26 60.88899 -161.56918 8768 ft 251 kts 51°
2026-05-04 10:26 60.89997 -161.54094 9593 ft 255 kts 52°
2026-05-04 10:26 60.91106 -161.51218 10409 ft 259 kts 52°
2026-05-04 10:26 60.92235 -161.48299 11158 ft 263 kts 53°
2026-05-04 10:27 60.93400 -161.45293 11691 ft 278 kts 52°
2026-05-04 10:27 60.94638 -161.42098 12125 ft 294 kts 52°
2026-05-04 10:27 60.95950 -161.38711 12556 ft 311 kts 52°
2026-05-04 10:27 60.97336 -161.35128 12970 ft 329 kts 52°
2026-05-04 10:28 60.98795 -161.31349 13419 ft 344 kts 52°
2026-05-04 10:28 61.00303 -161.27435 14104 ft 352 kts 52°
2026-05-04 10:28 61.01839 -161.23440 14872 ft 358 kts 52°
2026-05-04 10:28 61.03397 -161.19382 15658 ft 363 kts 53°
2026-05-04 10:29 61.04977 -161.15260 16438 ft 369 kts 53°
2026-05-04 10:29 61.06578 -161.11073 17207 ft 374 kts 53°
2026-05-04 10:29 61.08200 -161.06824 17981 ft 379 kts 53°
2026-05-04 10:29 61.09838 -161.02525 18723 ft 384 kts 53°
2026-05-04 10:30 61.11503 -160.98147 19433 ft 390 kts 53°
2026-05-04 10:30 61.13193 -160.93697 20123 ft 396 kts 53°
2026-05-04 10:30 61.14910 -160.89170 20791 ft 403 kts 54°
2026-05-04 10:30 61.16653 -160.84566 21454 ft 409 kts 54°
2026-05-04 10:31 61.18417 -160.79886 22096 ft 415 kts 54°
2026-05-04 10:31 61.20203 -160.75136 22713 ft 421 kts 54°
2026-05-04 10:32 61.31477 -160.45278 26004 ft 453 kts 56°
2026-05-04 10:33 61.33415 -160.40102 26622 ft 453 kts 56°
2026-05-04 10:33 61.35353 -160.34917 27246 ft 454 kts 56°
2026-05-04 10:33 61.37289 -160.29730 27867 ft 453 kts 57°
2026-05-04 10:33 61.39219 -160.24539 28462 ft 452 kts 57°
2026-05-04 10:34 61.41144 -160.19353 29051 ft 451 kts 58°
2026-05-04 10:34 61.43057 -160.14191 29643 ft 449 kts 58°
2026-05-04 10:34 61.44958 -160.09050 30284 ft 445 kts 58°
2026-05-04 10:34 61.46839 -160.03949 30910 ft 441 kts 58°
2026-05-04 10:35 61.48698 -159.98897 31568 ft 435 kts 58°
2026-05-04 10:35 61.50532 -159.93901 32199 ft 430 kts 58°
2026-05-04 10:35 61.52338 -159.88967 32813 ft 424 kts 58°
2026-05-04 10:35 61.54114 -159.84108 33447 ft 416 kts 57°
2026-05-04 10:36 61.55855 -159.79336 34078 ft 408 kts 57°
2026-05-04 10:36 61.57558 -159.74657 34687 ft 399 kts 57°
2026-05-04 10:36 61.59228 -159.70058 35092 ft 398 kts 57°
2026-05-04 10:36 61.60921 -159.65368 35084 ft 408 kts 57°
2026-05-04 10:37 61.64416 -159.55676 35112 ft 424 kts 57°
2026-05-04 10:37 61.68050 -159.45589 35112 ft 441 kts 57°
2026-05-04 10:39 61.79688 -159.12942 35113 ft 486 kts 57°
2026-05-04 10:39 61.81725 -159.07181 35116 ft 492 kts 57°
2026-05-04 10:40 61.85865 -158.95426 35115 ft 503 kts 57°
2026-05-04 10:40 61.90080 -158.83396 35115 ft 512 kts 57°
2026-05-04 10:41 61.94336 -158.71188 35114 ft 516 kts 57°
2026-05-04 10:41 61.98587 -158.58928 35113 ft 514 kts 57°
2026-05-04 10:42 62.02810 -158.46679 35113 ft 512 kts 57°
2026-05-04 10:42 62.07014 -158.34417 35114 ft 512 kts 57°
2026-05-04 10:43 62.11212 -158.22109 35114 ft 513 kts 57°
2026-05-04 10:45 62.27926 -157.72442 35113 ft 513 kts 58°
2026-05-04 10:45 62.32073 -157.59951 35114 ft 514 kts 58°
2026-05-04 10:46 62.36184 -157.47499 35114 ft 514 kts 58°
2026-05-04 10:46 62.40314 -157.34923 35114 ft 514 kts 58°
2026-05-04 10:47 62.44435 -157.22304 35113 ft 514 kts 58°
2026-05-04 10:47 62.48547 -157.09642 35111 ft 515 kts 58°
2026-05-04 10:49 62.64895 -156.58598 35104 ft 516 kts 58°
2026-05-04 10:50 62.68959 -156.45728 35107 ft 516 kts 59°
2026-05-04 10:51 62.83165 -156.00160 33108 ft 530 kts 59°
2026-05-04 10:52 62.85231 -155.93466 33107 ft 532 kts 59°
2026-05-04 10:52 62.89357 -155.80023 32840 ft 528 kts 60°
2026-05-04 10:54 63.02749 -155.34498 31104 ft 540 kts 63°
2026-05-04 10:54 63.04746 -155.27495 31100 ft 540 kts 62°
2026-05-04 10:56 63.20642 -154.71127 31084 ft 541 kts 63°
2026-05-04 10:57 63.24588 -154.56883 31083 ft 542 kts 63°
2026-05-04 10:57 63.28525 -154.42578 31082 ft 543 kts 63°
2026-05-04 10:58 63.32458 -154.28212 31081 ft 544 kts 63°
2026-05-04 10:58 63.36383 -154.13772 31080 ft 545 kts 63°
2026-05-04 10:59 63.40299 -153.99275 31080 ft 546 kts 63°
2026-05-04 10:59 63.44200 -153.84739 31086 ft 546 kts 63°
2026-05-04 11:00 63.48091 -153.70147 31083 ft 546 kts 63°
2026-05-04 11:02 63.63476 -153.11487 31082 ft 543 kts 64°
2026-05-04 11:05 63.90623 -152.04039 31077 ft 519 kts 64°
2026-05-04 11:06 63.94141 -151.89723 31078 ft 519 kts 64°
2026-05-04 11:06 63.97644 -151.75374 31079 ft 519 kts 64°
2026-05-04 11:08 64.09715 -151.25204 27740 ft 509 kts 65°
2026-05-04 11:10 64.21239 -150.76193 23558 ft 487 kts 64°
2026-05-04 11:12 64.32003 -150.29397 19612 ft 457 kts 65°
2026-05-04 11:12 64.33488 -150.22859 19052 ft 453 kts 64°
2026-05-04 11:12 64.34938 -150.16452 18517 ft 448 kts 65°
2026-05-04 11:12 64.36371 -150.10106 17977 ft 443 kts 65°
2026-05-04 11:13 64.37785 -150.03827 17456 ft 438 kts 65°
2026-05-04 11:13 64.39179 -149.97619 16930 ft 432 kts 65°
2026-05-04 11:13 64.40555 -149.91474 16361 ft 428 kts 64°
2026-05-04 11:13 64.41911 -149.85399 15831 ft 422 kts 64°
2026-05-04 11:14 64.43243 -149.79408 15323 ft 415 kts 64°
2026-05-04 11:14 64.44551 -149.73515 14827 ft 408 kts 64°
2026-05-04 11:14 64.45834 -149.67722 14346 ft 400 kts 64°
2026-05-04 11:16 64.54050 -149.30226 11200 ft 343 kts 65°
2026-05-04 11:16 64.55110 -149.25337 10800 ft 334 kts 65°
2026-05-04 11:16 64.56139 -149.20573 10470 ft 325 kts 65°
2026-05-04 11:17 64.57124 -149.16009 10369 ft 308 kts 65°
2026-05-04 11:17 64.58065 -149.11652 10208 ft 295 kts 65°
2026-05-04 11:19 64.62053 -148.83160 10014 ft 238 kts 76°
2026-05-04 11:19 64.62511 -148.79491 10000 ft 236 kts 76°
2026-05-04 11:19 64.62972 -148.75815 9952 ft 238 kts 76°
2026-05-04 11:19 64.63440 -148.72069 9732 ft 241 kts 76°
2026-05-04 11:20 64.63905 -148.68350 9475 ft 237 kts 76°
2026-05-04 11:20 64.64359 -148.64695 9228 ft 232 kts 76°
2026-05-04 11:20 64.64802 -148.61098 8970 ft 229 kts 76°
2026-05-04 11:20 64.65234 -148.57597 8731 ft 227 kts 76°
2026-05-04 11:22 64.64723 -148.32082 6023 ft 241 kts 105°
2026-05-04 11:22 64.64300 -148.28276 5600 ft 243 kts 105°
2026-05-04 11:23 64.63880 -148.24434 5175 ft 245 kts 105°
2026-05-04 11:23 64.63638 -148.20510 4738 ft 247 kts 83°
2026-05-04 11:24 64.70326 -148.06791 2795 ft 208 kts 39°
2026-05-04 11:25 64.71434 -148.04747 2798 ft 205 kts 39°
2026-05-04 11:25 64.72526 -148.02745 2773 ft 188 kts 38°
2026-05-04 11:25 64.73498 -148.00972 2501 ft 172 kts 38°
2026-05-04 11:26 64.75278 -147.97735 1911 ft 152 kts 38°
2026-05-04 11:27 64.80674 -147.87835 444 ft 130 kts 37°
2026-05-04 11:28 64.81243 -147.86790 443 ft 77 kts 39°
2026-05-04 11:28 64.81551 -147.86226 443 ft 34 kts 36°
2026-05-04 11:28 64.81656 -147.86287 443 ft 14 kts 276°
2026-05-04 11:28 64.81625 -147.86418 443 ft 1 kts 217°
2026-05-04 11:29 64.81615 -147.86436 443 ft 3 kts 217°
2026-05-04 11:29 64.81613 -147.86440 443 ft 0 kts 217°
2026-05-04 11:31 64.81603 -147.86673 443 ft 7 kts 291°
2026-05-04 11:33 64.81667 -147.86756 443 ft 0 kts 354°